Location: Bois de la Silve
(44.4667°N, 6.7833°E)
Time: 04:23:37
(UTC+00:00)

H-2A R/B - Pass Details

Date: 14 July 2020
Orbit: 577 x 656 km, 98.5° (Epoch: 06 August)

Event Time Altitude Azimuth Distance (km) Brightness Sun altitude
Rises 02:03:31 0° 136° (SE) 2,927 5.4 -16.1°
Reaches altitude 10° 02:05:58 10° 124° (SE) 2,010 4.7 -15.9°
Maximum altitude 02:09:39 27° 67° (ENE) 1,202 4.2 -15.5°
Drops below altitude 10° 02:13:17 10° 9° (N) 1,982 5.6 -15.1°
Sets 02:15:41 0° 358° (N) 2,877 6.3 -14.8°
